TimeEDT,TemperatureF,Dew PointF,Humidity,Sea Level PressureIn,VisibilityMPH,Wind Direction,Wind SpeedMPH,Gust SpeedMPH,PrecipitationIn,Events,Conditions,WindDirDegrees,DateUTC
12:56 AM,37.9,28.9,70,30.14,10.0,SW,4.6,-,N/A,,Clear,230,2012-10-12 04:56:00
1:56 AM,42.1,30.0,62,30.13,10.0,WSW,9.2,-,N/A,,Clear,240,2012-10-12 05:56:00
2:56 AM,39.9,30.0,68,30.12,10.0,SW,5.8,-,N/A,,Clear,230,2012-10-12 06:56:00
3:56 AM,41.0,30.0,65,30.11,10.0,WSW,10.4,-,N/A,,Partly Cloudy,250,2012-10-12 07:56:00
4:56 AM,39.9,30.9,70,30.12,10.0,West,9.2,-,N/A,,Scattered Clouds,260,2012-10-12 08:56:00
5:39 AM,42.8,30.2,61,30.10,10.0,West,6.9,-,N/A,,Mostly Cloudy,260,2012-10-12 09:39:00
5:56 AM,42.1,30.9,65,30.12,10.0,West,8.1,-,N/A,,Overcast,260,2012-10-12 09:56:00
6:08 AM,42.8,30.2,61,30.11,10.0,West,5.8,-,N/A,,Overcast,270,2012-10-12 10:08:00
6:35 AM,41.0,32.0,70,30.13,10.0,West,6.9,-,N/A,,Overcast,270,2012-10-12 10:35:00
6:56 AM,41.0,33.1,73,30.16,10.0,West,5.8,-,N/A,,Overcast,270,2012-10-12 10:56:00
7:29 AM,39.2,35.6,87,30.15,9.0,NNW,6.9,-,0.01,Rain,Light Rain,330,2012-10-12 11:29:00
7:56 AM,41.0,37.0,86,30.20,10.0,North,13.8,19.6,0.01,,Overcast,350,2012-10-12 11:56:00
8:24 AM,39.2,35.6,87,30.20,10.0,NNW,10.4,24.2,0.00,Rain,Light Rain,340,2012-10-12 12:24:00
8:43 AM,39.2,35.6,87,30.21,10.0,North,11.5,-,0.01,,Overcast,350,2012-10-12 12:43:00
8:56 AM,37.9,34.0,86,30.25,10.0,North,12.7,19.6,0.01,,Overcast,350,2012-10-12 12:56:00
9:56 AM,39.0,35.1,86,30.29,10.0,NW,8.1,-,N/A,,Overcast,320,2012-10-12 13:56:00
10:48 AM,42.8,35.6,76,30.27,10.0,NW,11.5,-,N/A,,Mostly Cloudy,320,2012-10-12 14:48:00
10:56 AM,43.0,35.1,74,30.30,10.0,NW,6.9,-,N/A,,Mostly Cloudy,320,2012-10-12 14:56:00
11:20 AM,44.6,32.0,61,30.27,10.0,NW,18.4,29.9,N/A,,Mostly Cloudy,320,2012-10-12 15:20:00
11:56 AM,45.0,30.9,58,30.32,10.0,NNW,12.7,21.9,N/A,,Mostly Cloudy,330,2012-10-12 15:56:00
12:56 PM,48.0,28.9,48,30.32,10.0,NW,17.3,24.2,N/A,,Mostly Cloudy,320,2012-10-12 16:56:00
1:56 PM,48.0,24.1,39,30.31,10.0,NW,17.3,26.5,N/A,,Partly Cloudy,320,2012-10-12 17:56:00
4:56 PM,46.9,19.0,33,30.34,10.0,North,11.5,-,N/A,,Clear,360,2012-10-12 20:56:00
5:56 PM,45.0,18.0,34,30.37,10.0,NNW,9.2,-,N/A,,Clear,340,2012-10-12 21:56:00
7:56 PM,37.9,21.0,51,30.40,10.0,North,4.6,-,N/A,,Clear,360,2012-10-12 23:56:00
9:56 PM,34.0,21.9,61,30.45,10.0,North,4.6,-,N/A,,Clear,10,2012-10-13 01:56:00
10:56 PM,34.0,21.0,59,30.45,10.0,ENE,3.5,-,N/A,,Clear,70,2012-10-13 02:56:00